contact:dominique.lefevre@mio.osupytheas.fr, maurice.libes@osupytheas.fr, didier.mallarino@osupytheas.fr
Project:EMSO http://www.emso-fr.org/EMSO-France
Depth: 2436.0 m
Title:EMSO Ligure Ouest : Data MII capteur CSTAR
DateTime,Latitude,Longitude,Instrument_Serial,Reference_Counts,Signal_Counts,Corrected_Signal_raw_counts,Calculated_Beam_c_inverse_meters,Internal_thermistor_counts
DateTime,Latitude,Longitude,Instrument_Serial,Reference_Counts,Signal_Counts,Corrected_Signal_raw_counts,Calculated_Beam_c_inverse_meters,Internal_thermistor_counts
2021-01-29T00:02:06,42.805,6.029,CST-1368DR,5577,7800,15030,0.153,551
2021-01-29T00:05:08,42.805,6.029,CST-1368DR,5577,7800,15030,0.153,551
2021-01-29T00:08:09,42.805,6.029,CST-1368DR,5577,7800,15030,0.153,551
2021-01-29T00:11:11,42.805,6.029,CST-1368DR,5577,7801,15031,0.153,551
2021-01-29T00:14:13,42.805,6.029,CST-1368DR,5577,7800,15029,0.153,551
2021-01-29T00:17:14,42.805,6.029,CST-1368DR,5577,7799,15028,0.154,551
2021-01-29T00:20:16,42.805,6.029,CST-1368DR,5577,7800,15030,0.153,551
2021-01-29T00:23:17,42.805,6.029,CST-1368DR,5577,7799,15028,0.154,551
2021-01-29T00:26:19,42.805,6.029,CST-1368DR,5577,7800,15029,0.153,551
2021-01-29T00:29:20,42.805,6.029,CST-1368DR,5577,7800,15029,0.153,551
2021-01-29T00:32:22,42.805,6.029,CST-1368DR,5577,7800,15030,0.153,551
2021-01-29T00:35:24,42.805,6.029,CST-1368DR,5577,7800,15030,0.153,551
2021-01-29T00:38:25,42.805,6.029,CST-1368DR,5577,7799,15028,0.154,551
2021-01-29T00:41:27,42.805,6.029,CST-1368DR,5577,7798,15025,0.154,551
2021-01-29T00:44:28,42.805,6.029,CST-1368DR,5577,7798,15025,0.154,551
2021-01-29T00:47:30,42.805,6.029,CST-1368DR,5577,7800,15030,0.153,551
2021-01-29T00:50:32,42.805,6.029,CST-1368DR,5577,7800,15030,0.153,551
2021-01-29T00:53:33,42.805,6.029,CST-1368DR,5577,7799,15027,0.154,551
2021-01-29T00:56:35,42.805,6.029,CST-1368DR,5577,7799,15028,0.154,551
2021-01-29T00:59:36,42.805,6.029,CST-1368DR,5577,7800,15029,0.153,551
2021-01-29T01:02:38,42.805,6.029,CST-1368DR,5577,7798,15025,0.154,551
2021-01-29T01:05:39,42.805,6.029,CST-1368DR,5577,7801,15031,0.153,551
2021-01-29T01:08:41,42.805,6.029,CST-1368DR,5577,7799,15027,0.154,550
2021-01-29T01:11:43,42.805,6.029,CST-1368DR,5577,7801,15032,0.152,551
2021-01-29T01:14:44,42.805,6.029,CST-1368DR,5577,7802,15033,0.152,551
2021-01-29T01:17:46,42.805,6.029,CST-1368DR,5577,7801,15032,0.152,551
2021-01-29T01:20:47,42.805,6.029,CST-1368DR,5577,7802,15033,0.152,551
2021-01-29T01:23:49,42.805,6.029,CST-1368DR,5577,7801,15032,0.152,551
2021-01-29T01:26:51,42.805,6.029,CST-1368DR,5577,7803,15035,0.152,551
2021-01-29T01:29:52,42.805,6.029,CST-1368DR,5577,7802,15033,0.152,551
2021-01-29T01:32:54,42.805,6.029,CST-1368DR,5577,7801,15032,0.152,551
2021-01-29T01:35:55,42.805,6.029,CST-1368DR,5577,7801,15032,0.152,551
2021-01-29T01:38:57,42.805,6.029,CST-1368DR,5576,7802,15035,0.152,551
2021-01-29T01:41:58,42.805,6.029,CST-1368DR,5577,7801,15032,0.152,551
2021-01-29T01:45:00,42.805,6.029,CST-1368DR,5577,7803,15035,0.152,551
2021-01-29T01:48:02,42.805,6.029,CST-1368DR,5577,7802,15034,0.152,551
2021-01-29T01:51:03,42.805,6.029,CST-1368DR,5577,7801,15032,0.152,551
2021-01-29T01:54:05,42.805,6.029,CST-1368DR,5577,7803,15035,0.152,551
2021-01-29T01:57:06,42.805,6.029,CST-1368DR,5577,7801,15032,0.152,551
2021-01-29T02:00:08,42.805,6.029,CST-1368DR,5577,7802,15034,0.152,551
2021-01-29T02:03:10,42.805,6.029,CST-1368DR,5577,7803,15035,0.152,551
2021-01-29T02:06:11,42.805,6.029,CST-1368DR,5577,7802,15033,0.152,551
2021-01-29T02:09:13,42.805,6.029,CST-1368DR,5577,7803,15035,0.152,551
2021-01-29T02:12:14,42.805,6.029,CST-1368DR,5577,7802,15033,0.152,551
2021-01-29T02:15:16,42.805,6.029,CST-1368DR,5577,7802,15033,0.152,551
2021-01-29T02:18:17,42.805,6.029,CST-1368DR,5577,7800,15029,0.153,551
2021-01-29T02:21:19,42.805,6.029,CST-1368DR,5576,7802,15035,0.152,551
2021-01-29T02:24:21,42.805,6.029,CST-1368DR,5577,7802,15033,0.152,551
2021-01-29T02:27:22,42.805,6.029,CST-1368DR,5576,7802,15036,0.151,551
2021-01-29T02:30:24,42.805,6.029,CST-1368DR,5577,7802,15033,0.152,551
2021-01-29T02:33:25,42.805,6.029,CST-1368DR,5577,7802,15033,0.152,551
2021-01-29T02:36:27,42.805,6.029,CST-1368DR,5577,7802,15034,0.152,551
2021-01-29T02:39:28,42.805,6.029,CST-1368DR,5576,7802,15036,0.151,551
2021-01-29T02:42:30,42.805,6.029,CST-1368DR,5577,7800,15030,0.153,551
2021-01-29T02:45:32,42.805,6.029,CST-1368DR,5577,7801,15032,0.152,551
2021-01-29T02:48:33,42.805,6.029,CST-1368DR,5576,7802,15035,0.152,551
2021-01-29T02:51:35,42.805,6.029,CST-1368DR,5577,7802,15034,0.152,551
2021-01-29T02:54:36,42.805,6.029,CST-1368DR,5577,7803,15036,0.151,551
2021-01-29T02:57:38,42.805,6.029,CST-1368DR,5576,7803,15038,0.151,551
2021-01-29T03:00:40,42.805,6.029,CST-1368DR,5577,7803,15036,0.151,551
2021-01-29T03:03:41,42.805,6.029,CST-1368DR,5576,7803,15037,0.151,551
2021-01-29T03:06:43,42.805,6.029,CST-1368DR,5576,7803,15038,0.151,551
2021-01-29T03:09:44,42.805,6.029,CST-1368DR,5576,7803,15037,0.151,551
2021-01-29T03:12:46,42.805,6.029,CST-1368DR,5577,7803,15036,0.151,551
2021-01-29T03:15:47,42.805,6.029,CST-1368DR,5576,7803,15038,0.151,551
2021-01-29T03:18:49,42.805,6.029,CST-1368DR,5576,7803,15038,0.151,551
2021-01-29T03:21:51,42.805,6.029,CST-1368DR,5577,7803,15035,0.152,551
2021-01-29T03:24:52,42.805,6.029,CST-1368DR,5576,7803,15038,0.151,551
2021-01-29T03:27:54,42.805,6.029,CST-1368DR,5576,7803,15038,0.151,551
2021-01-29T03:30:55,42.805,6.029,CST-1368DR,5576,7803,15037,0.151,551
2021-01-29T03:33:57,42.805,6.029,CST-1368DR,5577,7802,15033,0.152,551
2021-01-29T03:36:59,42.805,6.029,CST-1368DR,5576,7802,15036,0.151,551
2021-01-29T03:40:00,42.805,6.029,CST-1368DR,5576,7803,15038,0.151,551
2021-01-29T03:43:02,42.805,6.029,CST-1368DR,5576,7803,15038,0.151,551
2021-01-29T03:46:03,42.805,6.029,CST-1368DR,5576,7803,15038,0.151,551
2021-01-29T03:49:05,42.805,6.029,CST-1368DR,5576,7803,15039,0.151,551
2021-01-29T03:52:06,42.805,6.029,CST-1368DR,5576,7803,15038,0.151,551
2021-01-29T03:55:08,42.805,6.029,CST-1368DR,5576,7803,15038,0.151,551
2021-01-29T03:58:10,42.805,6.029,CST-1368DR,5576,7803,15037,0.151,551
2021-01-29T04:01:11,42.805,6.029,CST-1368DR,5576,7803,15039,0.151,551
2021-01-29T04:04:13,42.805,6.029,CST-1368DR,5576,7803,15038,0.151,551
2021-01-29T04:07:14,42.805,6.029,CST-1368DR,5576,7803,15039,0.151,551
2021-01-29T04:10:16,42.805,6.029,CST-1368DR,5576,7803,15037,0.151,551
2021-01-29T04:13:18,42.805,6.029,CST-1368DR,5576,7803,15037,0.151,551
2021-01-29T04:16:19,42.805,6.029,CST-1368DR,5576,7803,15038,0.151,551
2021-01-29T04:19:21,42.805,6.029,CST-1368DR,5576,7803,15038,0.151,551
2021-01-29T04:22:22,42.805,6.029,CST-1368DR,5576,7803,15038,0.151,551
2021-01-29T04:25:24,42.805,6.029,CST-1368DR,5576,7803,15038,0.151,551
2021-01-29T04:28:25,42.805,6.029,CST-1368DR,5576,7803,15037,0.151,551
2021-01-29T04:31:27,42.805,6.029,CST-1368DR,5576,7803,15038,0.151,551
2021-01-29T04:34:29,42.805,6.029,CST-1368DR,5576,7802,15035,0.152,551
2021-01-29T04:37:30,42.805,6.029,CST-1368DR,5576,7803,15038,0.151,551
2021-01-29T04:40:32,42.805,6.029,CST-1368DR,5576,7803,15038,0.151,551
2021-01-29T04:43:33,42.805,6.029,CST-1368DR,5576,7803,15037,0.151,551
2021-01-29T04:46:35,42.805,6.029,CST-1368DR,5576,7803,15038,0.151,551
2021-01-29T04:49:36,42.805,6.029,CST-1368DR,5576,7804,15039,0.151,551
2021-01-29T04:52:38,42.805,6.029,CST-1368DR,5576,7803,15038,0.151,551
2021-01-29T04:55:40,42.805,6.029,CST-1368DR,5576,7803,15038,0.151,551
2021-01-29T04:58:41,42.805,6.029,CST-1368DR,5576,7803,15038,0.151,551
2021-01-29T05:01:43,42.805,6.029,CST-1368DR,5576,7803,15037,0.151,551
2021-01-29T05:04:44,42.805,6.029,CST-1368DR,5576,7803,15039,0.151,551
2021-01-29T05:07:46,42.805,6.029,CST-1368DR,5576,7803,15038,0.151,551
2021-01-29T05:10:47,42.805,6.029,CST-1368DR,5576,7803,15039,0.151,551
2021-01-29T05:13:49,42.805,6.029,CST-1368DR,5576,7803,15038,0.151,551
2021-01-29T05:16:51,42.805,6.029,CST-1368DR,5576,7803,15038,0.151,551
2021-01-29T05:19:52,42.805,6.029,CST-1368DR,5576,7803,15038,0.151,551
2021-01-29T05:22:54,42.805,6.029,CST-1368DR,5576,7803,15037,0.151,551
2021-01-29T05:25:55,42.805,6.029,CST-1368DR,5576,7803,15037,0.151,551
2021-01-29T05:28:57,42.805,6.029,CST-1368DR,5576,7803,15038,0.151,551
2021-01-29T05:31:59,42.805,6.029,CST-1368DR,5576,7803,15038,0.151,551
2021-01-29T05:35:00,42.805,6.029,CST-1368DR,5576,7803,15038,0.151,551
2021-01-29T05:38:02,42.805,6.029,CST-1368DR,5576,7803,15038,0.151,551
2021-01-29T05:41:03,42.805,6.029,CST-1368DR,5576,7802,15036,0.151,551
2021-01-29T05:44:05,42.805,6.029,CST-1368DR,5576,7803,15038,0.151,551
2021-01-29T05:47:06,42.805,6.029,CST-1368DR,5576,7803,15037,0.151,551
2021-01-29T05:50:08,42.805,6.029,CST-1368DR,5576,7803,15037,0.151,551
2021-01-29T05:53:10,42.805,6.029,CST-1368DR,5576,7803,15037,0.151,551
2021-01-29T05:56:11,42.805,6.029,CST-1368DR,5576,7803,15037,0.151,551
2021-01-29T05:59:13,42.805,6.029,CST-1368DR,5576,7803,15037,0.151,551
2021-01-29T06:02:14,42.805,6.029,CST-1368DR,5576,7803,15038,0.151,551
2021-01-29T06:05:16,42.805,6.029,CST-1368DR,5576,7803,15037,0.151,551
2021-01-29T06:08:18,42.805,6.029,CST-1368DR,5576,7803,15038,0.151,551
2021-01-29T06:11:19,42.805,6.029,CST-1368DR,5576,7803,15038,0.151,551
2021-01-29T06:14:21,42.805,6.029,CST-1368DR,5576,7803,15038,0.151,551
2021-01-29T06:17:22,42.805,6.029,CST-1368DR,5576,7803,15038,0.151,551
2021-01-29T06:20:24,42.805,6.029,CST-1368DR,5576,7803,15038,0.151,551
2021-01-29T06:23:25,42.805,6.029,CST-1368DR,5576,7803,15037,0.151,551
2021-01-29T06:26:27,42.805,6.029,CST-1368DR,5576,7803,15038,0.151,550
2021-01-29T06:29:29,42.805,6.029,CST-1368DR,5576,7803,15038,0.151,551
2021-01-29T06:32:30,42.805,6.029,CST-1368DR,5576,7803,15038,0.151,551
2021-01-29T06:35:32,42.805,6.029,CST-1368DR,5576,7803,15039,0.151,551
2021-01-29T06:38:33,42.805,6.029,CST-1368DR,5576,7802,15036,0.151,551
2021-01-29T06:41:35,42.805,6.029,CST-1368DR,5576,7803,15038,0.151,551
2021-01-29T06:44:36,42.805,6.029,CST-1368DR,5576,7802,15036,0.151,551
2021-01-29T06:47:38,42.805,6.029,CST-1368DR,5576,7803,15038,0.151,551
2021-01-29T06:50:40,42.805,6.029,CST-1368DR,5576,7803,15038,0.151,551
2021-01-29T06:53:41,42.805,6.029,CST-1368DR,5576,7803,15038,0.151,551
2021-01-29T06:56:43,42.805,6.029,CST-1368DR,5576,7802,15036,0.151,551
2021-01-29T06:59:44,42.805,6.029,CST-1368DR,5576,7803,15038,0.151,551
2021-01-29T07:02:46,42.805,6.029,CST-1368DR,5576,7803,15038,0.151,550
2021-01-29T07:05:48,42.805,6.029,CST-1368DR,5576,7803,15037,0.151,551
2021-01-29T07:08:49,42.805,6.029,CST-1368DR,5576,7802,15036,0.151,551
2021-01-29T07:11:51,42.805,6.029,CST-1368DR,5576,7803,15038,0.151,551
2021-01-29T07:14:52,42.805,6.029,CST-1368DR,5576,7802,15035,0.152,551
2021-01-29T07:17:54,42.805,6.029,CST-1368DR,5576,7802,15035,0.152,551
2021-01-29T07:20:55,42.805,6.029,CST-1368DR,5576,7803,15038,0.151,551
2021-01-29T07:23:57,42.805,6.029,CST-1368DR,5576,7803,15037,0.151,551
2021-01-29T07:26:59,42.805,6.029,CST-1368DR,5576,7803,15038,0.151,551
2021-01-29T07:30:00,42.805,6.029,CST-1368DR,5576,7803,15038,0.151,550
2021-01-29T07:33:02,42.805,6.029,CST-1368DR,5576,7803,15037,0.151,551
2021-01-29T07:36:03,42.805,6.029,CST-1368DR,5576,7803,15037,0.151,551
2021-01-29T07:39:05,42.805,6.029,CST-1368DR,5576,7802,15036,0.151,551
2021-01-29T07:42:07,42.805,6.029,CST-1368DR,5576,7803,15038,0.151,551
2021-01-29T07:45:08,42.805,6.029,CST-1368DR,5576,7803,15038,0.151,551
2021-01-29T07:48:10,42.805,6.029,CST-1368DR,5576,7803,15038,0.151,551
2021-01-29T07:51:11,42.805,6.029,CST-1368DR,5576,7800,15033,0.152,551
2021-01-29T07:54:13,42.805,6.029,CST-1368DR,5576,7791,15015,0.157,551
2021-01-29T07:57:14,42.805,6.029,CST-1368DR,5576,7791,15015,0.157,551
2021-01-29T08:00:16,42.805,6.029,CST-1368DR,5576,7796,15025,0.154,551
2021-01-29T08:03:18,42.805,6.029,CST-1368DR,5576,7799,15030,0.153,551
2021-01-29T08:06:19,42.805,6.029,CST-1368DR,5576,7802,15035,0.152,551
2021-01-29T08:09:21,42.805,6.029,CST-1368DR,5576,7803,15038,0.151,551
2021-01-29T08:12:22,42.805,6.029,CST-1368DR,5576,7801,15035,0.152,551
2021-01-29T08:15:24,42.805,6.029,CST-1368DR,5576,7800,15032,0.152,551
2021-01-29T08:18:25,42.805,6.029,CST-1368DR,5576,7801,15035,0.152,551
2021-01-29T08:21:27,42.805,6.029,CST-1368DR,5576,7802,15036,0.151,551
2021-01-29T08:24:29,42.805,6.029,CST-1368DR,5576,7802,15036,0.151,551
2021-01-29T08:27:30,42.805,6.029,CST-1368DR,5576,7802,15036,0.151,551
2021-01-29T08:30:32,42.805,6.029,CST-1368DR,5576,7803,15038,0.151,551
2021-01-29T08:33:33,42.805,6.029,CST-1368DR,5576,7803,15037,0.151,551
2021-01-29T08:36:35,42.805,6.029,CST-1368DR,5576,7802,15036,0.151,551
2021-01-29T08:39:37,42.805,6.029,CST-1368DR,5576,7803,15039,0.151,551
2021-01-29T08:42:38,42.805,6.029,CST-1368DR,5576,7803,15038,0.151,551
2021-01-29T08:45:40,42.805,6.029,CST-1368DR,5576,7803,15038,0.151,551
2021-01-29T08:48:41,42.805,6.029,CST-1368DR,5576,7803,15038,0.151,551
2021-01-29T08:51:43,42.805,6.029,CST-1368DR,5576,7801,15034,0.152,551
2021-01-29T08:54:44,42.805,6.029,CST-1368DR,5576,7802,15036,0.151,551
2021-01-29T08:57:46,42.805,6.029,CST-1368DR,5576,7802,15036,0.151,551
2021-01-29T09:00:48,42.805,6.029,CST-1368DR,5576,7803,15037,0.151,551
2021-01-29T09:03:49,42.805,6.029,CST-1368DR,5576,7801,15035,0.152,551
2021-01-29T09:06:51,42.805,6.029,CST-1368DR,5576,7801,15034,0.152,551
2021-01-29T09:09:52,42.805,6.029,CST-1368DR,5576,7802,15036,0.151,551
2021-01-29T09:12:54,42.805,6.029,CST-1368DR,5576,7802,15036,0.151,551
2021-01-29T09:15:55,42.805,6.029,CST-1368DR,5576,7802,15036,0.151,551
2021-01-29T09:18:57,42.805,6.029,CST-1368DR,5576,7803,15038,0.151,551
2021-01-29T09:21:59,42.805,6.029,CST-1368DR,5576,7803,15037,0.151,551
2021-01-29T09:25:00,42.805,6.029,CST-1368DR,5576,7803,15037,0.151,551
2021-01-29T09:28:02,42.805,6.029,CST-1368DR,5576,7800,15032,0.152,551
2021-01-29T09:31:03,42.805,6.029,CST-1368DR,5576,7802,15036,0.151,551
2021-01-29T09:34:05,42.805,6.029,CST-1368DR,5576,7802,15036,0.151,551
2021-01-29T09:37:07,42.805,6.029,CST-1368DR,5576,7802,15036,0.151,551
2021-01-29T09:40:08,42.805,6.029,CST-1368DR,5576,7801,15035,0.152,551
2021-01-29T09:43:10,42.805,6.029,CST-1368DR,5576,7802,15036,0.151,551
2021-01-29T09:46:11,42.805,6.029,CST-1368DR,5576,7802,15035,0.152,551
2021-01-29T09:49:13,42.805,6.029,CST-1368DR,5576,7801,15034,0.152,551
2021-01-29T09:52:14,42.805,6.029,CST-1368DR,5576,7802,15036,0.151,551
2021-01-29T09:55:16,42.805,6.029,CST-1368DR,5576,7802,15035,0.152,551
2021-01-29T09:58:18,42.805,6.029,CST-1368DR,5576,7801,15035,0.152,551
2021-01-29T10:01:19,42.805,6.029,CST-1368DR,5576,7802,15035,0.152,551
2021-01-29T10:04:21,42.805,6.029,CST-1368DR,5576,7801,15034,0.152,551
2021-01-29T10:07:22,42.805,6.029,CST-1368DR,5576,7802,15036,0.151,551
2021-01-29T10:10:24,42.805,6.029,CST-1368DR,5576,7800,15033,0.152,551
2021-01-29T10:13:26,42.805,6.029,CST-1368DR,5576,7802,15036,0.151,551
2021-01-29T10:16:27,42.805,6.029,CST-1368DR,5576,7802,15035,0.152,551
2021-01-29T10:19:29,42.805,6.029,CST-1368DR,5576,7802,15035,0.152,551
2021-01-29T10:22:30,42.805,6.029,CST-1368DR,5576,7802,15036,0.151,551
2021-01-29T10:25:32,42.805,6.029,CST-1368DR,5576,7802,15036,0.151,551
2021-01-29T10:28:33,42.805,6.029,CST-1368DR,5576,7800,15032,0.152,551
2021-01-29T10:31:35,42.805,6.029,CST-1368DR,5576,7801,15033,0.152,551
2021-01-29T10:34:37,42.805,6.029,CST-1368DR,5576,7801,15035,0.152,551
2021-01-29T10:37:38,42.805,6.029,CST-1368DR,5576,7802,15035,0.152,551
2021-01-29T10:40:40,42.805,6.029,CST-1368DR,5576,7801,15035,0.152,551
2021-01-29T10:43:41,42.805,6.029,CST-1368DR,5576,7800,15032,0.152,551
2021-01-29T10:46:43,42.805,6.029,CST-1368DR,5576,7802,15035,0.152,551
2021-01-29T10:49:44,42.805,6.029,CST-1368DR,5576,7801,15033,0.152,551
2021-01-29T10:52:46,42.805,6.029,CST-1368DR,5576,7802,15035,0.152,551
2021-01-29T10:55:48,42.805,6.029,CST-1368DR,5576,7802,15036,0.151,551
2021-01-29T10:58:49,42.805,6.029,CST-1368DR,5576,7801,15034,0.152,551
2021-01-29T11:01:51,42.805,6.029,CST-1368DR,5576,7802,15036,0.151,551
2021-01-29T11:04:52,42.805,6.029,CST-1368DR,5576,7802,15036,0.151,551
2021-01-29T11:07:54,42.805,6.029,CST-1368DR,5576,7801,15034,0.152,551
2021-01-29T11:10:56,42.805,6.029,CST-1368DR,5576,7801,15035,0.152,550
2021-01-29T11:13:57,42.805,6.029,CST-1368DR,5576,7801,15034,0.152,551
2021-01-29T11:16:59,42.805,6.029,CST-1368DR,5576,7800,15033,0.152,551
2021-01-29T11:20:00,42.805,6.029,CST-1368DR,5576,7801,15034,0.152,551
2021-01-29T11:23:02,42.805,6.029,CST-1368DR,5576,7801,15034,0.152,551
2021-01-29T11:26:03,42.805,6.029,CST-1368DR,5576,7802,15035,0.152,551
2021-01-29T11:29:05,42.805,6.029,CST-1368DR,5576,7801,15034,0.152,551
2021-01-29T11:32:07,42.805,6.029,CST-1368DR,5576,7801,15034,0.152,551
2021-01-29T11:35:08,42.805,6.029,CST-1368DR,5576,7800,15033,0.152,551
2021-01-29T11:38:10,42.805,6.029,CST-1368DR,5576,7801,15034,0.152,551
2021-01-29T11:41:11,42.805,6.029,CST-1368DR,5576,7801,15034,0.152,551
2021-01-29T11:44:13,42.805,6.029,CST-1368DR,5576,7800,15033,0.152,551
2021-01-29T11:47:15,42.805,6.029,CST-1368DR,5576,7801,15034,0.152,551
2021-01-29T11:50:16,42.805,6.029,CST-1368DR,5576,7801,15033,0.152,551
2021-01-29T11:53:18,42.805,6.029,CST-1368DR,5576,7801,15034,0.152,551
2021-01-29T11:56:19,42.805,6.029,CST-1368DR,5576,7801,15034,0.152,551
2021-01-29T11:59:21,42.805,6.029,CST-1368DR,5576,7800,15032,0.152,551
2021-01-29T12:02:22,42.805,6.029,CST-1368DR,5576,7801,15033,0.152,551
2021-01-29T12:05:24,42.805,6.029,CST-1368DR,5576,7801,15033,0.152,551
2021-01-29T12:08:26,42.805,6.029,CST-1368DR,5576,7801,15033,0.152,551
2021-01-29T12:11:27,42.805,6.029,CST-1368DR,5575,7800,15035,0.152,551
2021-01-29T12:14:29,42.805,6.029,CST-1368DR,5576,7800,15032,0.152,551
2021-01-29T12:17:30,42.805,6.029,CST-1368DR,5576,7799,15031,0.153,551
2021-01-29T12:20:32,42.805,6.029,CST-1368DR,5576,7801,15033,0.152,551
2021-01-29T12:23:34,42.805,6.029,CST-1368DR,5576,7801,15034,0.152,551
2021-01-29T12:26:35,42.805,6.029,CST-1368DR,5576,7800,15032,0.152,551
2021-01-29T12:29:37,42.805,6.029,CST-1368DR,5576,7801,15034,0.152,551
2021-01-29T12:32:38,42.805,6.029,CST-1368DR,5576,7801,15034,0.152,551
2021-01-29T12:35:40,42.805,6.029,CST-1368DR,5576,7801,15034,0.152,551
2021-01-29T12:38:41,42.805,6.029,CST-1368DR,5576,7800,15031,0.153,551
2021-01-29T12:41:43,42.805,6.029,CST-1368DR,5576,7801,15034,0.152,550
2021-01-29T12:44:45,42.805,6.029,CST-1368DR,5576,7801,15034,0.152,551
2021-01-29T12:47:46,42.805,6.029,CST-1368DR,5576,7801,15034,0.152,551
2021-01-29T12:50:48,42.805,6.029,CST-1368DR,5576,7801,15034,0.152,551
2021-01-29T12:53:49,42.805,6.029,CST-1368DR,5575,7800,15035,0.152,551
2021-01-29T12:56:51,42.805,6.029,CST-1368DR,5575,7800,15034,0.152,551
2021-01-29T12:59:52,42.805,6.029,CST-1368DR,5575,7801,15036,0.151,551
2021-01-29T13:02:54,42.805,6.029,CST-1368DR,5575,7801,15036,0.151,551
2021-01-29T13:05:56,42.805,6.029,CST-1368DR,5575,7800,15035,0.152,551
2021-01-29T13:08:57,42.805,6.029,CST-1368DR,5575,7801,15036,0.151,551
2021-01-29T13:11:59,42.805,6.029,CST-1368DR,5575,7800,15035,0.152,551
2021-01-29T13:15:00,42.805,6.029,CST-1368DR,5575,7800,15035,0.152,551
2021-01-29T13:18:02,42.805,6.029,CST-1368DR,5575,7800,15034,0.152,551
2021-01-29T13:21:04,42.805,6.029,CST-1368DR,5575,7800,15034,0.152,551
2021-01-29T13:24:05,42.805,6.029,CST-1368DR,5575,7799,15033,0.152,551
2021-01-29T13:27:07,42.805,6.029,CST-1368DR,5575,7801,15036,0.151,551
2021-01-29T13:30:08,42.805,6.029,CST-1368DR,5575,7801,15036,0.151,551
2021-01-29T13:33:10,42.805,6.029,CST-1368DR,5575,7801,15036,0.151,551
2021-01-29T13:36:11,42.805,6.029,CST-1368DR,5575,7800,15034,0.152,551
2021-01-29T13:39:13,42.805,6.029,CST-1368DR,5575,7800,15035,0.152,551
2021-01-29T13:42:15,42.805,6.029,CST-1368DR,5575,7798,15032,0.152,551
2021-01-29T13:45:16,42.805,6.029,CST-1368DR,5575,7800,15034,0.152,551
2021-01-29T13:48:18,42.805,6.029,CST-1368DR,5575,7800,15034,0.152,551
2021-01-29T13:51:19,42.805,6.029,CST-1368DR,5575,7801,15036,0.151,551
2021-01-29T13:54:21,42.805,6.029,CST-1368DR,5575,7800,15034,0.152,551
2021-01-29T13:57:22,42.805,6.029,CST-1368DR,5575,7800,15034,0.152,551
2021-01-29T14:00:24,42.805,6.029,CST-1368DR,5575,7800,15034,0.152,551
2021-01-29T14:03:26,42.805,6.029,CST-1368DR,5575,7801,15036,0.151,551
2021-01-29T14:06:27,42.805,6.029,CST-1368DR,5575,7800,15035,0.152,551
2021-01-29T14:09:29,42.805,6.029,CST-1368DR,5575,7800,15034,0.152,551
2021-01-29T14:12:30,42.805,6.029,CST-1368DR,5575,7800,15035,0.152,551
2021-01-29T14:15:32,42.805,6.029,CST-1368DR,5575,7800,15035,0.152,551
2021-01-29T14:18:34,42.805,6.029,CST-1368DR,5575,7800,15035,0.152,551
2021-01-29T14:21:35,42.805,6.029,CST-1368DR,5575,7799,15033,0.152,551
2021-01-29T14:24:37,42.805,6.029,CST-1368DR,5575,7798,15031,0.153,551
2021-01-29T14:27:38,42.805,6.029,CST-1368DR,5575,7800,15034,0.152,551
2021-01-29T14:30:40,42.805,6.029,CST-1368DR,5575,7798,15032,0.152,551
2021-01-29T14:33:41,42.805,6.029,CST-1368DR,5575,7799,15033,0.152,551
2021-01-29T14:36:43,42.805,6.029,CST-1368DR,5575,7799,15032,0.152,551
2021-01-29T14:39:45,42.805,6.029,CST-1368DR,5575,7800,15035,0.152,551
2021-01-29T14:42:46,42.805,6.029,CST-1368DR,5575,7800,15034,0.152,551
2021-01-29T14:45:48,42.805,6.029,CST-1368DR,5575,7798,15031,0.153,551
2021-01-29T14:48:49,42.805,6.029,CST-1368DR,5575,7800,15034,0.152,551
2021-01-29T14:51:51,42.805,6.029,CST-1368DR,5575,7799,15032,0.152,551
2021-01-29T14:54:52,42.805,6.029,CST-1368DR,5575,7800,15034,0.152,551
2021-01-29T14:57:54,42.805,6.029,CST-1368DR,5575,7800,15034,0.152,551
2021-01-29T15:00:56,42.805,6.029,CST-1368DR,5575,7799,15033,0.152,551
2021-01-29T15:03:57,42.805,6.029,CST-1368DR,5575,7798,15030,0.153,551
2021-01-29T15:06:59,42.805,6.029,CST-1368DR,5575,7799,15033,0.152,551
2021-01-29T15:10:00,42.805,6.029,CST-1368DR,5575,7800,15034,0.152,551
2021-01-29T15:13:02,42.805,6.029,CST-1368DR,5575,7799,15032,0.152,551
2021-01-29T15:16:04,42.805,6.029,CST-1368DR,5575,7799,15032,0.152,550
2021-01-29T15:19:05,42.805,6.029,CST-1368DR,5575,7800,15034,0.152,551
2021-01-29T15:22:07,42.805,6.029,CST-1368DR,5575,7800,15034,0.152,551
2021-01-29T15:25:08,42.805,6.029,CST-1368DR,5575,7799,15033,0.152,551
2021-01-29T15:28:10,42.805,6.029,CST-1368DR,5575,7798,15031,0.153,551
2021-01-29T15:31:11,42.805,6.029,CST-1368DR,5575,7798,15031,0.153,551
2021-01-29T15:34:13,42.805,6.029,CST-1368DR,5575,7798,15032,0.152,551
2021-01-29T15:37:15,42.805,6.029,CST-1368DR,5575,7798,15031,0.153,551
2021-01-29T15:40:16,42.805,6.029,CST-1368DR,5575,7797,15029,0.153,551
2021-01-29T15:43:18,42.805,6.029,CST-1368DR,5575,7798,15031,0.153,551
2021-01-29T15:46:19,42.805,6.029,CST-1368DR,5575,7798,15032,0.152,551
2021-01-29T15:49:21,42.805,6.029,CST-1368DR,5575,7797,15029,0.153,551
2021-01-29T15:52:23,42.805,6.029,CST-1368DR,5575,7798,15032,0.152,551
2021-01-29T15:55:24,42.805,6.029,CST-1368DR,5575,7798,15031,0.153,551
2021-01-29T15:58:26,42.805,6.029,CST-1368DR,5575,7798,15032,0.152,551
2021-01-29T16:01:27,42.805,6.029,CST-1368DR,5575,7798,15032,0.152,551
2021-01-29T16:04:29,42.805,6.029,CST-1368DR,5575,7797,15030,0.153,551
2021-01-29T16:07:30,42.805,6.029,CST-1368DR,5575,7798,15032,0.152,551
2021-01-29T16:10:32,42.805,6.029,CST-1368DR,5575,7799,15032,0.152,551
2021-01-29T16:13:34,42.805,6.029,CST-1368DR,5575,7798,15032,0.152,551
2021-01-29T16:16:35,42.805,6.029,CST-1368DR,5575,7798,15031,0.153,551
2021-01-29T16:19:37,42.805,6.029,CST-1368DR,5575,7799,15033,0.152,551
2021-01-29T16:22:38,42.805,6.029,CST-1368DR,5575,7799,15032,0.152,551
2021-01-29T16:25:40,42.805,6.029,CST-1368DR,5575,7798,15030,0.153,551
2021-01-29T16:28:41,42.805,6.029,CST-1368DR,5575,7798,15032,0.152,551
2021-01-29T16:31:43,42.805,6.029,CST-1368DR,5575,7799,15032,0.152,551
2021-01-29T16:34:45,42.805,6.029,CST-1368DR,5575,7800,15034,0.152,551
2021-01-29T16:37:46,42.805,6.029,CST-1368DR,5575,7797,15030,0.153,551
2021-01-29T16:40:48,42.805,6.029,CST-1368DR,5575,7797,15029,0.153,551
2021-01-29T16:43:49,42.805,6.029,CST-1368DR,5575,7798,15032,0.152,551
2021-01-29T16:46:51,42.805,6.029,CST-1368DR,5575,7798,15032,0.152,551
2021-01-29T16:49:53,42.805,6.029,CST-1368DR,5575,7798,15030,0.153,551
2021-01-29T16:52:54,42.805,6.029,CST-1368DR,5575,7798,15031,0.153,551